Regional Weather Roundup
Issued by NWS

Home | Current Version | Previous Version | Graphics & Text | Print | Product List | Glossary On
Versions: 1 2 3 4 5 6 7 8 9 10 11 12 13 14 15 16 17 18 19 20 21 22 23 24 25 26 27 28 29 30 31 32 33 34 35 36 37 38 39 40 41 42 43 44 45 46 47 48 49 50
000
ASUS43 KOAX 251510
RWRNE

WEATHER ROUNDUP FOR NEBRASKA
NATIONAL WEATHER SERVICE OMAHA NE
1000 AM CDT WED MAY 25 2016

NOTES: SATELLITE DATA IS BEING USED TO AUGMENT CLOUD COVER ABOVE
       12000 FEET.
       "FAIR" INDICATES FEW OR NO CLOUDS BELOW 12,000 FEET WITH NO
       SIGNIFICANT WEATHER AND/OR OBSTRUCTIONS TO VISIBILITY.

  * THESE STATIONS DO NOT REPORT WEATHER SUCH AS RAIN...SNOW OR FOG.

NEZ001>004-019>022-054>056-251600-
NEBRASKA PANHANDLE

CITY           SKY/WX    TMP DP  RH WIND       PRES   REMARKS
SCOTTSBLUFF    SUNNY     60  46  59 W7        29.94S
ALLIANCE       SUNNY     58  52  80 W10       29.91S
CHADRON        SUNNY     59  51  75 SW10      29.90R
KIMBALL        SUNNY     61  46  56 SW6       29.99R
SIDNEY         SUNNY     62  53  72 SW12      29.98S
$$

NEZ057>060-069>072-079>082-251600-
SOUTHWEST NEBRASKA

CITY           SKY/WX    TMP DP  RH WIND       PRES   REMARKS
NORTH PLATTE   SUNNY     67  56  67 SW5       29.90R
IMPERIAL       SUNNY     65  53  65 CALM      29.94R
LEXINGTON      SUNNY     67  58  72 SE6       29.89S
MCCOOK         SUNNY     69  55  60 E13       29.89R
OGALLALA       MOSUNNY   62  54  76 W8        29.95S
$$

NEZ005>010-023>029-035>040-094-251600-
NORTH CENTRAL NEBRASKA

CITY           SKY/WX    TMP DP  RH WIND       PRES   REMARKS
VALENTINE      SUNNY     64  55  72 W17       29.84S
AINSWORTH      SUNNY     65  57  77 S12       29.84R
BROKEN BOW     SUNNY     68  54  60 SW12      29.86F
O`NEILL        SUNNY     67  58  72 S13       29.80F
ORD            SUNNY     67  58  72 SW10      29.84F
THEDFORD       SUNNY     66  56  69 SW15      29.89R
$$

NEZ041-046>049-061>064-073>077-083>087-251600-
SOUTH CENTRAL NEBRASKA

CITY           SKY/WX    TMP DP  RH WIND       PRES   REMARKS
GRAND ISLAND   SUNNY     68  59  73 S15       29.86S
AURORA         SUNNY     69  62  78 S13       29.86F
HASTINGS       SUNNY     65  58  78 SE15      29.87F
HEBRON         CLOUDY    63  60  89 E3        29.88F
HOLDREGE       SUNNY     68  56  65 SE14      29.87F
KEARNEY *      SUNNY     68  57  68 SE15      29.88S
YORK           MOSUNNY   68  59  73 S12       29.88R
$$

NEZ011>018-030>034-042>045-251600-
NORTHEAST NEBRASKA

CITY           SKY/WX    TMP DP  RH WIND       PRES   REMARKS
NORFOLK        CLOUDY    68  60  75 SW7       29.82R
ALBION         SUNNY     65  62  89 SW10      29.85R
BLAIR          CLOUDY    68  63  84 SE7       29.85S
FREMONT        PTSUNNY   67  60  79 S9        29.86S
TEKAMAH        CLOUDY    69  62  78 S17       29.83F
WAYNE          PTSUNNY   68  62  79 S14       29.82R
$$

NEZ050>053-065>068-078-088>093-251600-
SOUTHEAST NEBRASKA

CITY           SKY/WX    TMP DP  RH WIND       PRES   REMARKS
LINCOLN        CLOUDY    64  61  90 SE6       29.89S
OMAHA EPPLEY   CLOUDY    68  63  84 SE15      29.87F
BEATRICE       CLOUDY    62  59  92 SE6       29.89F
FALLS CITY     LGT RAIN  65  62  90 N8        29.92R
NEBRASKA CITY  LGT RAIN  65  63  96 S12       29.94S
PLATTSMOUTH    LGT RAIN  67  63  89 W5        29.91R
$$

NEZ044-045-051>053-067-251600-
OMAHA AREA

CITY           SKY/WX    TMP DP  RH WIND       PRES   REMARKS
OMAHA EPPLEY   CLOUDY    68  63  84 SE15      29.87F
BLAIR          CLOUDY    68  63  84 SE7       29.85S
FREMONT        PTSUNNY   67  60  79 S9        29.86S
MILLARD        CLOUDY    68  61  78 S9G16     29.87R
OFFUTT AFB     CLOUDY    67  63  87 S8        29.88F
PLATTSMOUTH    LGT RAIN  67  63  89 W5        29.91R
WAHOO          FAIR      67  60  77 S10       29.87R
$$




USA.gov is the U.S. government's official web portal to all federal, state and local government web resources and services.